DateTimeUTC,F1_A11,F1_S11,BsB_S11,BsG_S11,BsR_S11,BbsB_S11,BbsG_S11,BbsR_S11,BaB_A11,BaG_A11,BaR_A11,Tu_S11,T_S11,Uu_S11,U_S11,P_S11,T1_A11
2021-08-08T05:00:00Z,00000200,20000000,,,,,,,0000.12,0000.07,0000.33,18.5,25.4,03.4,02.2,0666.0,31.1
2021-08-08T05:01:00Z,00000200,20000000,,,,,,,0000.07,-000.14,-000.22,18.5,25.4,03.4,02.2,0666.0,31.0
2021-08-08T05:02:00Z,00000200,20000000,,,,,,,-000.18,0000.20,-000.26,18.5,25.4,03.4,02.2,0666.0,31.0
2021-08-08T05:03:00Z,00000200,60000000,,,,,,,0000.35,-000.06,0000.54,18.5,25.4,03.4,02.2,0666.0,31.0
2021-08-08T05:04:00Z,00000200,40000000,0001.49,0001.44,0000.51,0000.24,0000.30,0000.49,0000.29,0000.54,0000.49,18.5,25.2,03.5,02.4,0666.9,31.0
2021-08-08T05:05:00Z,00000200,00000000,0001.74,0001.33,0000.59,0000.55,0000.05,0000.17,0000.37,0000.35,-000.12,18.6,25.1,03.6,02.4,0667.0,31.0
2021-08-08T05:06:00Z,00000200,00000000,0002.03,0001.17,0000.77,0000.24,0000.46,0000.16,0000.58,0000.15,0000.39,18.6,25.1,03.7,02.5,0667.0,31.0
2021-08-08T05:07:00Z,00000200,00000000,0001.73,0001.00,0000.71,0000.68,0000.19,0000.08,0000.78,0000.92,0000.66,18.5,25.1,03.7,02.5,0667.0,31.0
2021-08-08T05:08:00Z,00000200,00000000,0002.12,0001.29,0000.61,0000.25,0000.02,0000.30,0000.30,0000.17,0000.41,18.6,25.1,03.8,02.6,0667.0,31.0
2021-08-08T05:09:00Z,00000200,00000000,0001.89,0001.05,0000.94,0000.25,0000.12,0000.26,0000.23,0000.83,0000.23,18.6,25.1,03.8,02.6,0667.0,31.0
2021-08-08T05:10:00Z,00000200,00000000,0001.82,0001.06,0000.68,0000.61,0000.34,0000.29,0000.46,-000.04,0000.66,18.7,25.1,03.9,02.6,0667.0,31.0
2021-08-08T05:11:00Z,00000200,00000000,0001.02,0001.17,0000.82,0000.53,0000.09,0000.57,0000.80,0000.23,-000.06,18.6,25.1,04.0,02.7,0667.0,31.1
2021-08-08T05:12:00Z,00000200,00000000,0002.04,0001.31,0000.60,0000.38,0000.18,0000.38,-000.02,0000.62,0000.55,18.7,25.1,04.0,02.7,0667.0,31.0
2021-08-08T05:13:00Z,00000200,00000000,0002.04,0001.17,0000.35,0000.18,0000.10,0000.12,0000.20,0000.12,-000.10,18.7,25.1,04.0,02.7,0667.0,31.0
2021-08-08T05:14:00Z,00000200,00000000,0001.97,0001.16,0000.60,0000.32,0000.17,0000.11,0000.50,0000.63,0000.83,18.7,25.1,04.1,02.8,0667.0,31.0
2021-08-08T05:15:00Z,00000200,00000000,0001.74,0001.29,0000.42,-000.19,0000.31,0000.64,0000.09,-000.03,-000.23,18.6,25.1,04.0,02.7,0667.0,31.1
2021-08-08T05:16:00Z,00000200,00000000,0001.86,0001.10,0000.46,0000.36,0000.16,0000.30,0000.70,0000.57,0000.37,18.6,25.1,04.1,02.7,0667.0,31.0
2021-08-08T05:17:00Z,00000200,00000000,0001.42,0000.99,0000.84,0000.21,0000.10,0000.17,-000.00,0000.30,0000.30,18.6,25.1,04.1,02.8,0667.0,31.0
2021-08-08T05:18:00Z,00000200,00000000,0001.24,0001.28,0001.20,0000.82,0000.40,0000.82,0000.80,0000.44,0000.71,18.6,25.1,04.2,02.8,0667.0,31.0
2021-08-08T05:19:00Z,00000200,00000000,0001.46,0001.56,0000.64,0000.45,0000.31,0000.35,0000.30,0000.15,0000.01,18.6,25.1,04.3,02.9,0667.0,31.0
2021-08-08T05:20:00Z,00000200,00000000,0001.77,0000.96,0000.61,0000.22,0000.34,0000.17,0000.54,0000.70,0000.66,18.5,25.0,04.3,02.9,0667.0,31.0
2021-08-08T05:21:00Z,00000200,00000000,0001.79,0001.31,0000.29,0000.57,0000.33,0000.05,0000.28,0000.20,-000.02,18.5,25.0,04.4,02.9,0667.1,31.0
2021-08-08T05:22:00Z,00000200,00000000,0001.48,0001.30,0000.67,-000.15,0000.09,0000.36,0000.32,0000.49,0000.44,18.5,25.0,04.4,03.0,0667.0,31.0
2021-08-08T05:23:00Z,00000200,00000000,0000.79,0001.69,0000.59,0000.76,0000.47,0000.09,0000.36,0000.26,0000.10,18.5,25.0,04.5,03.0,0667.0,31.0
2021-08-08T05:24:00Z,00000200,00000000,0001.08,0000.85,0000.42,0000.63,0000.19,0000.18,0000.39,0000.26,0000.59,18.6,25.1,04.5,03.1,0667.1,31.0
2021-08-08T05:25:00Z,00000200,00000000,0001.75,0000.88,0000.47,-000.05,0000.41,0000.42,0000.59,0000.33,0000.29,18.7,25.1,04.5,03.1,0667.0,31.1
2021-08-08T05:26:00Z,00000200,00000000,0000.57,0001.06,0000.53,0000.50,0000.49,0000.10,0000.32,0000.75,-000.03,18.7,25.1,04.5,03.0,0667.0,31.1
2021-08-08T05:27:00Z,00000200,00000000,0001.58,0000.96,0000.50,0000.87,0000.40,0000.36,0000.05,-000.10,0000.57,18.8,25.2,04.6,03.1,0667.1,31.1
2021-08-08T05:28:00Z,00000200,00000000,0001.19,0001.12,0000.33,0000.55,0000.29,0000.21,0000.35,0000.20,0000.23,18.8,25.2,04.6,03.1,0667.0,31.1
2021-08-08T05:29:00Z,00000200,00000000,0002.49,0000.94,0000.70,0000.06,0000.34,0000.19,0000.51,0000.46,0000.14,18.8,25.2,04.6,03.1,0667.1,31.1
2021-08-08T05:30:00Z,00000200,00000000,0001.10,0001.00,0000.59,0000.29,0000.30,0000.15,0000.25,0000.52,0000.48,18.8,25.1,04.6,03.1,0667.0,31.1
2021-08-08T05:31:00Z,00000200,00000000,0001.15,0000.86,0000.96,0000.74,0000.02,0000.37,0000.44,0000.38,0000.05,18.7,25.1,04.7,03.2,0667.0,31.1
2021-08-08T05:32:00Z,00000200,00000000,0000.97,0000.92,0000.61,-000.04,-000.13,-000.09,0000.18,0000.03,0000.44,18.7,25.1,04.7,03.1,0667.1,31.0
2021-08-08T05:33:00Z,00000200,00000000,0000.75,0000.81,0000.33,0000.28,0000.09,0000.09,0000.32,0000.71,0000.12,18.7,25.1,04.7,03.2,0667.1,31.0
2021-08-08T05:34:00Z,00000200,00000000,0001.69,0001.00,0000.26,-000.45,-000.07,0000.09,0000.13,-000.34,-000.19,18.7,25.1,04.7,03.1,0667.1,31.0
2021-08-08T05:35:00Z,00000200,00000000,0001.78,0001.07,0000.15,0000.50,0000.29,0000.07,0000.57,0000.17,0000.35,18.7,25.1,04.7,03.2,0667.1,31.0
2021-08-08T05:36:00Z,00000200,00000000,0001.54,0000.87,0000.76,0000.36,0000.19,0000.38,-000.26,0000.43,0000.21,18.6,25.1,04.7,03.2,0667.0,31.1
2021-08-08T05:37:00Z,00000200,00000000,0001.29,0000.99,0000.49,0000.23,0000.32,0000.16,0000.62,0000.44,0000.02,18.6,25.0,04.8,03.2,0667.1,31.0
2021-08-08T05:38:00Z,00000200,00000000,0001.28,0000.71,0000.56,0000.30,0000.02,0000.41,0000.15,0000.21,0000.79,18.6,25.0,04.8,03.2,0667.0,31.0
2021-08-08T05:39:00Z,00000200,00000000,0001.49,0000.85,0000.71,0000.78,0000.33,0000.22,0000.33,0000.22,-000.11,18.6,25.0,04.9,03.3,0667.0,31.0
2021-08-08T05:40:00Z,00000200,00000000,0001.28,0000.44,0000.25,0000.33,0000.08,0000.13,0000.21,0000.22,0000.50,18.6,25.0,04.7,03.2,0667.0,31.0
2021-08-08T05:41:00Z,00000200,00000000,0000.53,0000.91,0000.07,-000.02,0000.21,0000.41,0000.42,0000.17,-000.18,18.6,25.0,04.9,03.3,0667.0,31.0
2021-08-08T05:42:00Z,00000200,00000000,0000.96,0000.55,0000.59,-000.04,-000.01,0000.20,-000.33,-000.22,0000.14,18.5,25.0,04.8,03.3,0667.0,31.0
2021-08-08T05:43:00Z,00000200,00000000,0000.72,0000.90,0000.44,0000.26,0000.28,-000.14,0000.52,0000.20,0000.34,18.5,25.0,04.9,03.3,0667.0,31.0
2021-08-08T05:44:00Z,00000200,00000000,0001.16,0000.90,0000.78,0000.40,0000.34,0000.17,0000.42,0000.73,0000.27,18.5,25.0,05.0,03.3,0667.0,31.0
2021-08-08T05:45:00Z,00000200,00000000,0002.27,0000.98,0000.43,0000.12,0000.21,-000.12,0000.02,0000.43,0000.30,18.5,25.0,04.9,03.3,0667.0,31.0
2021-08-08T05:46:00Z,00000200,00000000,0000.66,0001.23,0000.78,-000.02,-000.10,0000.40,0000.14,-000.18,-000.20,18.5,24.9,05.0,03.3,0667.0,31.0
2021-08-08T05:47:00Z,00000200,00000000,0000.84,0000.52,0000.18,0000.72,0000.11,0000.03,0000.18,-000.13,0000.01,18.5,24.9,04.9,03.3,0667.0,31.0
2021-08-08T05:48:00Z,00000200,00000000,0001.42,0001.01,0000.42,0000.01,0000.09,0000.33,-000.14,0000.38,0000.34,18.5,24.9,04.9,03.3,0667.0,31.0
2021-08-08T05:49:00Z,00000200,00000000,0001.52,0000.63,0000.34,0000.52,0000.06,0000.29,0000.70,0000.01,0000.41,18.5,24.9,04.9,03.3,0667.0,31.0
2021-08-08T05:50:00Z,00000200,00000000,0000.76,0000.85,0000.37,-000.27,0000.16,-000.19,-000.13,0000.19,0000.08,18.4,24.9,04.9,03.3,0667.0,31.0
2021-08-08T05:51:00Z,00000200,00000000,0000.94,0001.22,0000.40,0000.55,-000.02,0000.17,0000.23,0000.13,0000.04,18.4,24.9,04.8,03.3,0667.0,31.0
2021-08-08T05:52:00Z,00000200,00000000,0001.16,0001.11,0000.13,0000.25,0000.33,-000.02,0000.25,0000.22,0000.07,18.4,24.9,04.9,03.3,0667.1,31.0
2021-08-08T05:53:00Z,00000200,00000000,0000.94,0000.64,0000.36,0000.31,0000.06,0000.39,0000.17,0000.11,0000.18,18.4,24.9,04.9,03.3,0667.0,31.0
2021-08-08T05:54:00Z,00000200,00000000,0000.98,0001.11,0000.40,-000.78,-000.00,0000.02,0000.02,0000.26,-000.18,18.5,24.9,04.8,03.2,0667.0,31.0
2021-08-08T05:55:00Z,00000200,00000000,0000.87,0000.88,0000.31,0000.19,-000.01,0000.22,0000.15,0000.32,-000.10,18.6,25.0,04.8,03.2,0667.0,31.1
2021-08-08T05:56:00Z,00000200,00000000,0000.78,0000.85,0000.31,0000.90,0000.24,0000.48,0000.40,-000.08,0000.71,18.7,25.0,04.7,03.2,0667.0,31.1
2021-08-08T05:57:00Z,00000200,40000000,,,,,,,-000.61,-000.34,-000.22,18.8,25.1,04.7,03.2,0667.1,31.1
2021-08-08T05:58:00Z,00000200,60000000,,,,,,,0000.17,0000.32,-000.03,18.6,25.3,04.5,03.0,0666.1,31.1
2021-08-08T05:59:00Z,00000200,20000000,,,,,,,0000.30,-000.24,0000.32,18.5,25.4,04.6,03.0,0666.1,31.1
